Regional Weather Roundup
Issued by NWS

Home | Current Version | Previous Version | Graphics & Text | Print | Product List | Glossary On
Versions: 1 2 3 4 5 6 7 8 9 10 11 12 13 14 15 16 17 18 19 20 21 22 23 24 25 26 27 28 29 30 31 32 33 34 35 36 37 38 39 40 41 42 43 44 45 46 47 48 49 50
000
ASUS43 KLOT 220503
RWRIL

ILLINOIS REGIONAL WEATHER ROUNDUP
NATIONAL WEATHER SERVICE CHICAGO/ROMEOVILLE IL
1100 PM CST SUN JAN 21 2018

NOTE: "FAIR" INDICATES FEW OR NO CLOUDS BELOW 12,000 FEET WITH NO
SIGNIFICANT WEATHER AND/OR OBSTRUCTIONS TO VISIBILITY.

* THESE STATIONS ARE NOT UNDER NWS QUALITY CONTROL. THEY ALSO MAY NOT
  REPORT WEATHER SUCH AS PRECIPITATION OR FOG.

ILZ001-002-007-009-015-016-024-220600-
NORTHWEST ILLINOIS

CITY           SKY/WX    TMP DP  RH WIND       PRES   REMARKS
MOLINE         FOG       43  42  97 E5        29.73F VSB 1/4
STERLING*      LGT RAIN  42  42 100 E7        29.77F VSB 1/4
SAVANNA*       LGT RAIN  40  40  99 NE7       29.78F
$$

ILZ003-004-008-010-011-017-018-220600-
NORTH CENTRAL ILLINOIS

CITY           SKY/WX    TMP DP  RH WIND       PRES   REMARKS
ROCKFORD       DRZL/FOG  40  40 100 E8        29.82F VSB 1/4
FREEPORT*      LGT RAIN  37  37 100 E8        29.81F VSB 1/4 WCI  30
ROCHELLE*      LGT RAIN  42  42 100 CALM      29.81F VSB 1/4
DE KALB*       LGT RAIN  43  43  99 SE7       29.82F VSB 1/4
PERU*          FOG       47  47  99 S10       29.81F VSB 1/2
$$

ILZ005-006-012>014-019>023-220600-
NORTHEAST ILLINOIS

CITY           SKY/WX    TMP DP  RH WIND       PRES   REMARKS
CHICAGO-OHARE  FOG       43  42  97 SE7       29.83F VSB 1/8
CHICAGO-MIDWAY FOG       48  48 100 S10       29.84F VSB 1/2
AURORA         FOG       44  44 100 E5        29.83F VSB 1/4
LANSING*       FOG       46  46 100 S3        29.86F VSB 3/4
JOLIET*        FOG       46  46 100 SE6       29.83F VSB 1/2
WAUKEGAN       FOG       37  37 100 NE6       29.86S VSB 1/4 WCI  32
DUPAGE AIRPORT FOG       46  46 100 S6        29.83F VSB 1/4
KANKAKEE*      FOG      N/A N/A N/A SE8       29.86F VSB 3/4
WHEELING       FOG       40  40 100 NE3       29.86F VSB 1/4
MORRIS*        FOG       47  46  99 S10       29.81F VSB 1/2
NORTHERLY ISL    N/A     38  37  97 CALM        N/A
$$

LMZ740>746-220600-
SOUTHERN LAKE MICHIGAN

STATION/POSITION SKY/WX   TEMP    WIND        PRES    VSBY  WAVE
                          AIR SEA DIR/SP/G                  HT/PER
                          (F)     (DEG/KT/KT) (MB)    (MI)  (FT/S)
HARRISON CRIB              40     160/  7/  8   N/A
BURNHAM HARBOR             38      CALM  /  2   N/A
CALUMET HARBOR             46     170/  7/  8 1010.8F
BURNS HARBOR               47     190/  9/ 14 1012.2F
MICHIGAN CITY              45     140/  8/  9   N/A
$$

ILZ025>027-034>036-040-047-049-050-058-095>099-220600-
WEST-CENTRAL ILLINOIS

CITY           SKY/WX    TMP DP  RH WIND       PRES   REMARKS
QUINCY         CLOUDY    57  53  86 S14G26    29.70S
GALESBURG*     FOG       51  51 100 SE9       29.74F VSB 3/4
JACKSONVILLE*  CLOUDY    55  52  92 S13G24    29.75F
PITTSFIELD*    LGT RAIN  55  53  94 S8        29.74F
$$

ILZ028>032-037-038-041>044-048-051>054-059>061-220600-
CENTRAL ILLINOIS

CITY           SKY/WX    TMP DP  RH WIND       PRES   REMARKS
BLOOMINGTON    LGT RAIN  48  48 100 SE16      29.80F VSB 1/2
DECATUR        CLOUDY    51  51 100 S15       29.82F FOG
PEORIA         FOG       51  51 100 S13       29.77F VSB 1/4
LACON*         CLOUDY    49  49 100 S8        29.78S FOG
LINCOLN*       CLOUDY    54  54 100 S13G18    29.79F FOG
SPRINGFIELD    CLOUDY    56  55  97 S21G26    29.78F
TAYLORVILLE    CLOUDY    53  53  99 S13G22    29.80F
$$

ILZ033-039-045-046-055>057-062-063-220600-
EAST-CENTRAL ILLINOIS

CITY           SKY/WX    TMP DP  RH WIND       PRES   REMARKS
CHAMPAIGN      CLOUDY    49  49 100 S14       29.84F FOG
DANVILLE*      HVY RAIN  49  49 100 S13       29.85F
RANTOUL*       HVY RAIN  48  48  99 S7        29.85F VSB 1/2
MATTOON        CLOUDY    48  48 100 S13       29.85F FOG
$$

ILZ079-100>102-220600-
SOUTHWEST ILLINOIS

CITY           SKY/WX    TMP DP  RH WIND       PRES   REMARKS
ALTON          CLOUDY    55  55 100 SE10      29.78F
BELLEVILLE     CLOUDY    56  53  91 S9        29.79F
CAHOKIA*       CLOUDY    54  53  97 SE6       29.79F
SPARTA*        CLOUDY    57  56  97 SE12      29.83F
$$

ILZ064>066-069>071-074>076-080>082-084>086-088>090-092>094-220600-
SOUTH-CENTRAL ILLINOIS

CITY           SKY/WX    TMP DP  RH WIND       PRES   REMARKS
CARBONDALE     CLOUDY    55  52  89 S12       29.85F
CAIRO*         LGT RAIN  57  49  76 SE10      29.87F
EFFINGHAM*     CLOUDY    52  52 100 SE12      29.87F
MARION         CLOUDY    57  51  80 S12G17    29.87F
MT. VERNON     LGT RAIN  54  51  90 S10       29.86F
CENTRALIA*     LGT RAIN  55  53  93 S15       29.84F
SALEM*         CLOUDY    57  52  83 S9        29.85F
METROPOLIS*    MOCLDY    59  47  64 S10G16    29.90F
$$

ILZ067-068-072-073-078-083-087-091-220600-
SOUTHEAST ILLINOIS

CITY           SKY/WX    TMP DP  RH WIND       PRES   REMARKS
LAWRENCEVILLE  CLOUDY    49  46  90 S10       29.91F
FLORA*         LGT RAIN  51  50  95 SE12      29.87F
FAIRFIELD*     CLOUDY    52  50  94 SE3       29.87F
HARRISBURG*    CLOUDY    54  49  85 S8        29.89F
ROBINSON*      LGT RAIN  50  48  93 S8        29.91F
CARMI*         CLOUDY    46  46 100 SE3       29.90F
$$

ABBREVIATIONS USED IN REMARKS
   TC - TEMPERATURE IN CELSIUS
  WCI - WIND CHILL INDEX
   HX - HEAT INDEX
  VSB - VISIBILITY
$$





USA.gov is the U.S. government's official web portal to all federal, state and local government web resources and services.